Tracking 19847 objects as of 16-Sep-2019
HD Live streaming from Space Station
objects crossing your sky now

CZ-4 DEB

Track CZ-4 DEB now!
10-day predictions


NORAD ID: 26441
Int'l Code: 1999-057KN
Perigee: 641.3 km
Apogee: 727.4 km
Inclination: 98.3 °
Period: 98.3 minutes
Semi major axis: 7055 km
RCS: 0.0092 m2 (small)
Launch date: October 14, 1999
Source: People's Republic of China (PRC)
Launch site: Taiyaun Space Center, China (TSC)

Note: This is SATELLITE DEBRIS
aabbcc
Your satellite tracking list
Your tracking list is empty




NASA's NSSDC Master Catalog

Two Line Element Set (TLE):
1 26441U 99057KN  19259.49503722  .00000587  00000-0  11635-3 0  9994
2 26441  98.3175 260.1466 0061015   3.3340 356.8257 14.64950831 26637
Source of the keplerian elements: AFSPC